Theta_e
305 307 309 310 311 312 312 312 312 312 311 311 310 309 309 311 315 316 315 317 315 315 317 318 318 319 320 320 322 320 322 319 319 317 323 318 317 316 316 317 315 315 316 313 312 315 317 330 331 326 331 332 332 331
308 310 310 310 309 310 310 311 312 311 311 311 311 311 310 310 312 315 315 316 316 314 316 316 316 318 318 318 318 316 321 318 318 318 325 319 321 320 318 319 317 316 312 315 314 314 325 326 328 328 329 330 328 327
310 310 309 309 310 310 309 310 311 311 311 311 311 311 312 312 311 313 314 315 312 313 314 314 316 317 318 318 317 320 318 317 317 317 320 324 321 320 320 318 321 321 317 326 326 328 327 324 325 326 326 326 325 325
310 308 310 309 310 311 311 311 311 311 311 311 311 311 312 312 313 313 314 313 314 313 316 316 315 314 316 317 317 316 317 317 316 316 320 321 320 316 317 317 320 317 316 315 319 324 323 323 323 325 324 324 324 324
308 309 308 308 309 309 310 310 311 312 312 311 311 311 311 312 312 313 313 313 313 314 316 314 315 315 316 316 317 318 317 317 316 317 317 317 316 314 314 314 319 317 317 315 317 321 319 321 320 321 321 325 324 324
309 308 309 308 308 308 309 310 310 311 311 312 311 311 311 312 312 312 312 311 312 313 315 317 315 316 316 317 318 319 317 317 317 316 314 316 315 313 315 314 316 316 316 315 318 318 319 319 319 319 318 321 321 321
308 309 309 309 309 310 309 309 309 310 311 312 312 311 311 312 312 311 312 312 311 313 316 319 319 317 317 318 317 317 317 317 315 313 315 315 314 310 313 316 316 316 317 317 316 316 315 315 316 315 317 320 322 323
307 307 308 309 309 310 310 310 310 310 310 311 311 311 311 312 312 313 312 312 312 313 315 320 319 319 317 319 319 316 314 314 314 314 313 314 313 311 313 313 311 316 316 315 314 312 312 312 313 314 317 319 321 321
307 307 306 307 308 309 309 310 309 309 310 311 311 311 311 313 313 312 312 312 313 313 316 321 319 319 317 318 317 314 314 316 313 313 313 313 314 315 313 310 310 316 314 313 312 314 313 313 313 314 314 316 318 319
308 308 307 307 306 307 309 308 309 310 312 311 312 313 314 313 313 312 312 313 312 314 315 321 320 321 318 317 318 315 317 319 316 314 311 312 314 313 312 310 309 315 314 312 313 312 312 313 312 313 314 313 313 316
309 306 305 306 306 307 307 308 310 310 313 314 312 312 312 313 312 315 318 318 316 320 318 319 318 320 316 317 319 317 319 319 322 320 317 317 315 313 313 312 312 313 313 312 311 311 311 311 312 313 315 314 317 318
306 306 306 306 306 307 308 309 310 310 310 310 310 312 313 313 317 320 319 318 319 323 320 320 318 318 319 320 318 317 319 319 322 317 319 320 316 317 315 316 313 313 313 313 312 311 313 313 314 314 314 316 318 319
308 306 306 307 307 308 310 310 310 310 313 315 313 316 315 313 317 322 321 318 320 320 320 320 321 317 316 319 319 319 321 321 318 320 321 319 315 316 316 315 313 312 313 312 312 313 314 314 315 316 315 317 319 318
308 306 306 307 308 309 311 310 310 311 314 316 318 312 317 320 319 318 318 319 318 319 320 319 319 320 318 319 321 323 318 319 319 321 323 319 316 315 314 313 313 312 311 311 310 312 313 313 314 317 318 318 317 316
307 305 306 308 308 310 311 310 311 311 315 317 317 316 318 315 317 317 317 315 315 314 316 318 317 316 319 322 319 320 321 320 317 318 321 319 316 314 313 312 311 311 310 309 310 310 312 313 314 314 315 317 316 315
306 309 312 311 310 310 309 309 314 315 318 317 315 316 314 316 315 318 317 314 311 312 314 312 317 318 316 317 321 322 320 319 321 318 317 318 317 315 314 313 311 310 309 309 310 311 312 313 312 312 313 314 311 312
308 311 312 312 312 311 310 311 316 317 317 316 317 314 313 314 314 314 312 313 312 315 314 313 315 316 314 318 320 316 318 316 313 313 315 316 315 314 313 311 310 310 310 311 311 311 312 312 310 310 309 309 309 309
310 313 311 308 310 313 315 313 317 316 315 313 313 313 312 312 313 313 312 311 311 310 309 311 311 312 313 316 316 312 312 310 310 313 314 315 313 313 312 310 310 310 310 310 311 310 311 311 309 308 309 308 308 309
309 309 308 308 310 311 315 316 317 315 313 313 311 311 310 312 312 312 310 307 307 306 306 310 310 311 310 310 310 310 310 310 312 311 311 312 312 312 312 312 311 310 310 310 311 311 310 309 308 308 307 307 308 310
309 310 310 309 310 313 317 314 316 315 315 311 312 312 311 311 310 310 309 309 308 309 308 309 307 310 309 309 309 309 309 310 310 310 310 310 310 310 310 310 310 310 310 310 310 309 310 310 310 309 309 310 310 309
312 315 314 312 314 312 315 315 314 313 312 314 310 311 312 312 311 311 310 309 309 310 310 308 306 306 308 309 308 308 308 308 308 309 309 309 309 309 309 309 309 309 309 309 309 310 310 309 310 310 309 309 309 309
314 314 313 315 315 318 315 317 316 313 316 313 314 314 315 315 312 310 309 308 310 309 309 308 308 308 308 306 306 308 308 308 308 308 308 308 308 308 309 309 310 309 309 309 310 310 310 310 309 309 309 309 310 309
314 315 315 316 317 311 312 316 315 314 315 315 314 314 314 311 311 309 310 310 310 309 310 309 310 311 309 310 309 308 308 308 307 307 308 308 309 309 309 309 309 309 309 309 310 310 310 310 310 309 310 309 310 308
315 315 318 319 318 314 318 317 317 317 316 316 316 317 313 312 311 312 312 310 308 308 309 309 310 308 309 309 307 308 310 310 309 309 308 308 307 308 309 309 308 308 308 308 309 308 307 308 309 309 309 309 310 309
314 314 312 309 316 320 320 320 320 318 317 318 319 316 315 314 314 314 312 309 307 307 309 311 310 308 308 308 308 310 311 310 308 305 309 309 309 309 308 309 308 308 308 307 307 306 306 306 307 308 308 309 309 308
315 316 315 321 320 318 319 315 317 318 317 319 318 317 316 316 317 316 311 309 307 307 309 310 309 309 308 309 307 309 311 310 310 309 310 310 310 309 307 305 306 307 308 307 307 306 306 305 306 306 307 307 307 307
314 320 318 316 314 316 317 317 317 317 319 320 318 318 319 318 319 314 307 306 306 309 311 311 311 309 308 309 312 312 311 310 310 309 309 309 308 308 308 307 306 307 308 307 306 305 304 305 305 306 306 305 306 306
318 319 318 319 318 316 323 319 318 319 319 317 317 318 320 318 316 310 307 309 309 309 310 311 310 309 309 309 310 310 310 309 307 307 307 307 307 307 306 306 306 306 307 307 305 305 305 304 305 305 305 305 305 305
320 320 321 322 321 320 319 316 314 311 314 315 317 317 315 311 310 309 311 310 310 311 311 310 311 310 310 309 309 308 306 305 304 302 301 300 302 304 304 304 305 306 306 306 306 305 305 306 305 305 305 304 305 305
322 320 322 321 321 317 312 311 311 310 311 312 311 311 311 309 312 311 311 310 309 309 310 309 308 308 307 307 307 308 307 306 305 305 302 301 302 304 304 304 305 306 305 303 302 303 304 305 304 303 304 304 303 304
320 322 323 321 321 315 312 311 311 310 311 312 312 311 311 310 311 311 310 310 310 310 310 309 309 308 307 307 307 305 304 306 306 306 306 305 304 304 305 305 305 304 303 304 304 304 304 305 305 304 304 305 304 304
319 321 319 320 318 316 312 313 314 311 312 312 312 310 311 310 310 308 311 310 310 310 310 310 309 309 308 308 308 307 307 307 307 307 306 305 305 305 305 305 305 306 305 304 305 305 305 305 305 305 306 306 306 305
320 320 318 319 319 317 314 315 316 316 315 312 312 311 311 311 312 309 311 311 310 311 311 310 310 310 308 307 308 307 307 306 306 306 306 306 306 305 305 306 306 306 307 306 305 305 306 306 306 306 306 306 306 306
Wind_Speed
30 30 32 33 33 32 32 30 29 27 25 23 20 18 17 18 18 19 10 20 9 3 3 4 5 6 2 2 2 4 3 5 4 2 1 3 4 5 3 6 8 7 6 4 3 3 4 2 2 5 6 7 9 5
29 30 31 33 34 33 31 29 28 26 25 24 23 21 18 18 20 17 8 22 21 3 2 5 15 21 11 6 4 3 4 2 3 2 3 1 2 3 2 8 2 4 7 6 5 6 4 3 6 7 11 11 5 7
27 28 29 30 30 28 23 21 21 22 23 23 23 22 21 20 20 21 12 15 9 1 3 4 10 23 22 19 14 4 3 3 3 1 3 2 4 3 2 5 3 1 3 5 5 3 6 8 7 7 10 9 8 7
24 24 24 26 25 23 20 19 19 20 21 21 20 20 20 21 21 21 18 22 15 2 3 4 10 12 16 25 22 11 3 4 1 3 3 2 3 5 5 3 3 4 4 7 4 5 6 4 7 9 9 9 8 7
20 20 22 23 22 22 21 23 24 21 13 13 13 14 16 17 18 18 23 21 23 4 1 3 8 9 13 18 22 12 4 1 2 3 2 4 3 2 2 4 1 2 6 5 5 11 6 5 6 7 8 6 8 6
16 16 20 21 19 20 20 21 23 22 15 5 2 5 7 10 11 10 2 13 22 17 1 2 3 2 9 15 14 11 6 4 4 4 4 1 1 4 3 3 2 1 3 7 5 7 7 8 9 6 6 7 6 7
12 14 17 19 19 21 21 21 23 25 22 18 9 10 8 9 12 2 2 1 20 14 2 3 2 2 11 6 1 1 7 6 6 4 4 4 1 4 3 2 3 3 13 15 15 15 8 4 5 6 8 9 10 9
8 11 13 13 14 16 18 20 22 21 20 20 21 19 14 7 5 2 1 8 19 2 2 2 1 0 4 3 1 6 4 2 3 2 2 3 2 2 2 4 7 5 11 9 8 7 8 8 8 7 11 9 6 5
8 9 11 12 12 12 12 14 17 16 13 8 5 4 4 3 2 4 9 15 9 1 2 1 2 1 3 2 4 3 4 3 3 2 1 4 0 2 6 7 9 12 9 11 9 13 10 9 8 7 6 6 6 7
8 10 12 12 12 12 13 15 16 21 19 11 4 2 2 2 14 15 2 2 2 2 2 2 2 2 4 2 3 0 2 1 2 3 3 3 3 4 8 9 8 12 14 12 10 7 7 5 6 6 7 6 6 7
8 11 12 12 10 10 11 13 16 21 8 7 4 2 5 11 2 2 2 2 2 2 2 2 3 2 3 2 3 1 1 1 2 4 4 2 3 5 8 8 7 11 12 8 10 7 9 10 7 6 5 6 6 8
9 11 12 9 7 6 8 11 17 16 13 11 12 8 2 2 2 2 3 3 1 3 0 1 2 4 0 1 2 3 2 2 3 1 3 2 4 4 7 9 10 14 15 13 17 11 13 12 11 8 8 8 7 7
10 11 10 7 4 5 8 12 15 19 20 1 2 2 2 2 3 3 5 4 4 3 2 3 2 2 4 4 2 4 2 3 2 2 2 4 2 4 11 14 12 14 19 16 12 17 17 11 8 8 7 6 12 9
9 11 10 7 5 6 9 13 17 19 5 2 2 5 2 3 3 1 1 2 3 2 5 3 2 3 2 4 2 4 2 2 2 1 2 4 3 5 7 10 16 12 13 12 9 13 12 9 8 11 11 11 14 14
9 10 10 7 6 8 12 16 20 9 2 2 1 2 3 2 2 1 1 2 3 3 2 2 3 3 2 2 2 3 1 2 2 1 3 6 5 3 7 10 12 12 11 9 13 11 11 11 13 10 10 12 15 14
7 5 7 9 8 11 14 18 6 2 2 1 3 4 4 3 4 3 2 1 3 3 2 3 2 3 3 1 2 2 2 1 2 2 5 3 4 7 6 8 9 12 14 13 14 12 13 11 13 14 18 20 18 16
6 2 11 13 12 11 10 6 3 2 2 2 2 1 2 2 1 2 1 3 4 2 2 2 4 2 2 1 1 3 2 2 3 5 5 3 10 8 8 7 11 14 15 15 14 13 16 15 17 19 14 15 17 16
2 7 10 5 10 9 3 4 2 2 2 1 2 3 2 1 1 2 2 3 3 2 2 2 2 3 1 0 1 1 2 2 2 3 3 4 10 14 5 9 13 17 15 16 15 13 12 12 12 11 13 11 12 12
9 9 5 5 9 5 2 3 3 1 2 2 1 1 2 1 1 2 2 3 4 5 5 2 2 1 1 1 1 2 2 1 2 3 3 8 11 14 13 16 17 16 16 14 12 12 12 11 11 12 11 9 8 7
9 8 5 5 5 2 3 4 2 1 2 4 3 2 3 2 1 1 1 2 3 1 3 2 2 2 2 2 2 2 1 1 3 4 4 5 12 17 15 14 13 16 13 9 8 9 9 10 9 11 10 8 12 9
4 5 6 4 2 5 3 2 3 3 2 1 3 3 1 1 1 2 2 1 3 1 1 2 3 2 1 3 5 5 4 6 2 2 4 5 7 16 15 10 13 12 11 9 10 9 10 9 9 7 9 7 10 11
3 8 3 3 2 3 3 4 4 3 1 1 2 3 2 2 2 2 2 3 1 2 2 3 4 3 3 3 4 4 9 13 12 9 10 13 3 5 7 11 8 5 6 7 5 6 8 9 10 8 7 7 7 7
6 3 3 3 1 3 6 1 2 1 1 3 2 3 2 2 3 2 2 2 1 1 3 4 8 12 9 9 9 8 10 9 5 6 9 8 8 9 10 13 17 12 9 15 20 13 8 8 10 12 12 12 9 7
5 3 2 2 3 4 2 2 1 2 1 1 0 3 4 3 2 2 2 2 2 2 2 3 7 4 4 5 3 7 14 14 11 12 15 12 8 11 12 9 7 13 14 11 14 15 15 11 8 10 13 11 10 11
1 4 3 4 3 3 3 3 2 2 1 3 3 2 3 3 3 1 4 3 4 4 4 7 5 4 4 4 4 11 13 11 12 5 13 17 13 6 8 4 5 8 15 14 11 12 13 13 9 9 12 17 16 12
2 4 6 4 2 1 2 2 2 3 2 3 4 1 3 3 2 4 5 6 5 5 5 6 5 4 4 10 4 6 16 15 13 8 9 13 13 7 4 4 4 5 12 10 12 11 10 10 12 8 5 14 15 15
3 5 4 0 4 2 2 3 1 2 3 4 3 2 2 2 4 3 2 3 4 14 26 26 21 12 9 15 21 19 17 19 17 9 8 11 15 16 14 16 14 12 15 13 13 13 13 15 9 6 12 11 14 14
5 3 5 5 4 5 5 2 5 6 4 4 2 5 5 5 5 4 4 16 20 18 20 22 18 14 8 18 20 21 20 18 23 24 20 17 17 18 17 14 11 14 16 18 17 14 13 17 14 15 13 9 5 4
4 3 2 6 4 3 5 6 4 2 1 2 2 1 1 1 3 4 11 23 19 14 11 14 19 20 14 19 24 25 24 27 21 10 9 5 6 12 16 14 15 18 20 18 16 16 14 13 18 13 15 12 8 9
4 3 2 1 2 0 2 3 2 1 1 3 3 3 3 3 10 23 22 17 11 7 8 12 25 23 18 15 18 17 22 23 21 20 8 5 10 15 14 15 16 17 17 17 15 12 10 12 12 12 11 7 5 8
3 3 3 3 3 3 4 3 1 2 3 3 2 4 3 2 5 22 21 16 14 12 9 9 21 23 22 18 15 12 8 22 19 17 20 19 21 18 13 17 19 14 15 17 10 9 4 7 7 8 5 4 7 9
1 3 3 2 3 4 2 3 3 3 2 3 2 3 2 3 3 3 20 23 19 13 14 13 13 19 20 22 18 11 20 17 16 21 23 24 24 21 20 16 14 12 14 17 8 4 7 9 8 7 5 10 8 8
2 3 5 3 2 2 3 2 2 3 4 4 4 6 5 6 6 6 20 27 24 19 16 13 15 14 24 21 19 25 25 22 19 18 18 18 20 23 18 14 15 14 12 12 11 9 8 9 10 11 6 5 4 6
Wind_Direction
328 328 324 321 315 309 303 298 292 287 283 278 274 270 263 243 233 223 225 231 202 214 255 213 192 207 214 192 214 289 24 351 23 40 124 274 114 241 118 176 167 173 158 193 139 140 251 272 3 163 146 99 116 88
334 330 330 325 319 311 303 296 292 285 278 271 262 255 252 243 235 233 210 231 227 216 282 266 258 248 248 223 169 281 167 224 233 110 273 164 2 84 68 277 145 178 173 173 165 199 240 343 129 111 118 123 126 120
335 338 337 338 337 331 318 305 296 289 280 269 259 251 243 235 226 224 206 203 184 225 267 242 237 239 239 232 213 196 238 94 342 266 212 173 160 92 216 228 140 35 137 110 93 291 133 107 103 118 129 129 139 142
340 340 342 346 352 356 354 342 325 304 283 269 258 249 240 235 229 221 209 208 189 162 248 268 255 238 235 227 222 218 337 346 271 316 268 125 246 177 200 176 120 203 117 128 74 80 72 42 134 144 135 132 127 143
346 350 354 352 355 359 2 3 1 349 306 263 254 242 234 229 224 222 220 214 200 186 246 273 301 229 197 205 205 195 287 333 310 306 199 199 176 132 334 50 235 200 164 132 200 175 137 175 174 133 126 143 148 136
352 359 358 5 8 11 14 15 20 26 29 29 242 226 218 212 190 162 178 211 214 204 262 280 274 201 185 203 200 202 228 277 237 205 233 126 232 104 102 176 287 261 87 143 149 141 128 133 106 113 125 161 160 151
356 2 10 19 29 32 31 33 34 38 43 52 88 100 114 142 142 127 177 163 193 190 223 224 244 345 170 145 109 252 231 248 218 207 229 142 142 90 95 150 72 139 108 102 113 110 80 119 146 114 108 101 130 129
336 348 359 6 11 16 25 31 33 37 49 68 84 98 105 101 95 109 303 159 167 172 250 249 356 357 45 90 228 211 212 158 279 213 42 112 30 89 124 207 126 146 119 117 125 112 140 135 127 124 131 125 124 154
305 324 339 338 341 351 0 3 3 5 3 8 20 342 325 14 31 84 129 157 169 24 299 265 109 130 129 250 235 176 125 216 253 109 131 94 156 166 203 202 142 161 158 159 125 123 127 132 153 154 156 178 174 196
291 311 317 320 322 324 335 343 347 351 348 341 5 316 32 83 135 120 130 134 185 235 224 306 37 130 191 226 300 250 0 36 68 247 100 105 221 235 199 199 174 174 147 140 119 128 134 133 160 180 193 204 200 199
291 310 315 314 316 325 330 339 346 347 360 359 4 40 28 158 259 227 206 224 166 195 257 259 144 145 271 199 187 92 145 124 89 268 127 220 245 226 203 198 158 147 147 135 117 112 122 133 123 110 90 133 140 165
302 315 318 314 319 334 340 346 345 353 333 308 282 301 250 247 275 317 294 322 11 43 222 290 230 188 82 100 88 348 125 73 210 196 110 230 255 268 146 127 118 119 119 115 117 113 111 108 112 98 138 130 127 129
309 316 320 309 311 328 340 341 344 337 333 232 180 189 119 273 32 14 354 327 9 9 334 300 348 90 39 58 40 12 74 214 43 74 219 225 251 135 119 118 110 112 111 107 100 109 111 109 91 107 126 112 135 122
307 315 317 291 287 307 328 335 337 340 313 351 343 353 25 9 30 333 273 302 277 335 340 8 8 64 48 57 36 327 262 63 58 81 242 322 235 148 119 121 115 112 108 106 99 111 117 118 110 103 109 135 138 129
311 316 318 307 290 310 321 325 327 314 278 280 168 35 19 280 261 255 132 14 333 327 22 355 35 82 62 86 237 278 260 239 107 216 336 322 335 26 85 104 110 108 108 106 108 105 118 108 121 111 121 130 128 128
328 337 5 349 322 309 314 324 335 204 244 261 51 19 332 47 349 9 34 355 310 332 28 28 50 61 56 96 273 27 50 119 83 331 303 311 82 71 81 85 96 107 107 110 117 118 104 115 129 109 105 122 119 117
334 4 331 322 312 312 308 302 288 242 260 54 17 307 143 133 205 294 61 315 313 52 68 24 30 54 306 131 172 8 77 63 327 306 328 116 94 80 84 84 109 113 112 117 118 116 101 123 124 115 103 112 115 114
269 302 322 350 352 343 303 211 253 270 43 10 94 287 0 145 96 5 336 340 47 71 41 90 119 49 47 294 92 38 338 329 310 346 335 134 113 111 140 136 120 119 120 124 123 122 118 129 114 115 123 128 124 123
282 308 327 341 351 320 293 257 188 268 194 179 181 276 96 101 7 155 104 39 82 120 120 106 85 142 218 209 252 290 281 218 10 3 2 95 110 113 108 109 112 118 121 120 129 139 146 145 147 156 149 140 130 138
285 295 283 288 304 279 289 276 217 117 247 223 141 119 126 148 230 220 212 180 138 135 59 86 163 192 205 254 238 235 254 167 130 104 70 64 82 94 89 101 108 113 108 103 140 147 138 137 138 152 151 143 142 119
308 349 323 282 265 223 267 297 342 216 237 181 147 100 336 354 4 212 261 171 51 47 80 156 155 171 181 125 129 114 96 103 90 88 109 102 92 89 94 116 112 120 132 144 148 154 155 162 163 156 150 136 147 133
317 329 304 260 268 229 240 211 172 268 347 251 64 107 129 270 274 228 158 58 41 247 168 140 151 140 116 140 194 148 128 116 120 113 111 117 113 131 162 171 159 194 217 234 224 184 177 170 177 184 184 179 174 161
346 311 254 247 316 23 261 14 94 284 46 322 3 124 199 205 228 93 81 141 234 309 104 116 142 154 148 152 150 159 166 155 148 146 158 173 184 193 207 216 220 228 229 235 225 222 218 198 191 195 208 202 194 175
290 268 283 281 186 256 293 327 36 16 34 354 217 250 185 188 129 64 117 170 199 130 93 136 129 113 129 157 177 191 198 209 214 201 198 208 234 243 239 231 206 164 126 115 163 146 125 122 163 216 211 192 182 174
326 288 105 298 279 291 354 1 43 41 322 333 299 254 160 79 40 321 162 189 157 174 177 187 181 175 175 211 213 213 212 193 179 187 215 214 216 213 222 206 160 175 172 167 150 141 137 136 139 141 178 184 177 162
227 226 159 222 172 175 183 215 261 204 208 237 235 280 64 104 140 242 191 174 173 174 181 190 195 202 228 211 190 204 216 199 193 201 249 226 224 202 215 144 138 158 176 181 169 173 172 170 155 127 161 176 179 184
242 232 220 134 131 112 300 262 172 188 226 227 242 115 104 201 219 247 151 155 161 186 192 196 201 207 214 215 212 210 208 202 199 211 224 212 221 205 212 166 162 190 189 183 188 190 177 168 157 158 184 191 177 182
234 211 194 189 179 190 191 223 211 208 224 215 181 162 187 198 217 192 182 174 176 189 195 191 190 183 182 186 168 154 153 151 134 117 110 110 126 139 143 158 192 197 202 185 179 168 181 190 209 199 185 199 150 123
252 253 239 270 293 193 187 183 184 234 205 86 90 125 208 191 181 129 157 179 185 187 188 192 207 213 210 162 155 151 150 146 135 123 124 133 122 140 138 132 132 130 135 129 140 150 137 150 152 148 159 176 148 120
242 212 277 326 257 141 271 138 180 231 107 134 129 47 36 26 137 150 157 166 166 181 192 155 147 146 150 151 167 178 173 171 174 159 155 168 166 159 167 166 159 150 140 124 112 112 124 135 131 129 137 137 163 162
338 300 223 225 252 222 198 193 181 98 94 116 103 114 148 142 143 161 166 175 190 208 219 168 172 173 172 175 175 166 169 184 184 175 176 172 160 157 146 145 147 149 170 160 168 179 182 173 176 175 182 198 193 194
183 260 345 289 270 265 175 163 194 143 134 108 150 135 105 89 173 233 187 185 197 211 223 199 173 183 186 179 179 178 158 158 164 168 173 172 172 167 168 174 175 185 197 213 203 158 181 209 234 234 228 225 199 169
228 235 223 276 268 235 256 191 221 180 138 173 180 176 189 165 192 221 189 193 199 209 208 193 200 186 159 157 156 150 142 137 140 150 156 167 173 176 181 197 208 201 205 214 198 187 195 222 246 260 270 208 199 182